When you browse on this site, cookies collect data to enhance your experience and personalize the content and advertising you see.
Visit our Privacy Policy to learn more. By continuing to use the site, you agree to this use of cookies and data.
  • In Italy
  • List of Countries
  • For 7 days
  • Water Temperature
  • Satellite Maps
  • Weather Map
  • Weather Widgets
  • user-avatar
    Login

    Hourly Weather Sovetskij

    Today, 18 January, Friday

    Time Temperature Precipitation Wind Pressure Humidity
    00:00 -1°C° 0 mm 3 mps 750 mmHg 84%
    01:00 -1°C° 0 mm 3 mps 750 mmHg 81%
    02:00 -1°C° 0 mm 3 mps 749 mmHg 81%
    03:00 -1°C° 0 mm 3 mps 749 mmHg 80%
    04:00 -1°C° 0 mm 3 mps 749 mmHg 80%
    05:00 0°C° 0 mm 3 mps 748 mmHg 80%
    06:00 0°C° 0 mm 3 mps 748 mmHg 82%
    07:00 0°C° 0 mm 4 mps 748 mmHg 84%
    08:00 +1°C° 0 mm 3 mps 748 mmHg 86%
    09:00 +1°C° 0 mm 4 mps 748 mmHg 85%
    10:00 +4°C° 0 mm 4 mps 748 mmHg 84%
    11:00 +5°C° 0 mm 5 mps 749 mmHg 82%
    12:00 +6°C° 0 mm 5 mps 748 mmHg 82%
    13:00 +6°C° 0 mm 4 mps 748 mmHg 81%
    14:00 +6°C° 0 mm 4 mps 748 mmHg 81%
    15:00 +5°C° 0 mm 4 mps 748 mmHg 83%
    16:00 +4°C° 0 mm 4 mps 748 mmHg 85%
    17:00 +3°C° 0 mm 3 mps 748 mmHg 88%
    18:00 +2°C° 0 mm 3 mps 748 mmHg 88%
    19:00 +2°C° 0 mm 3 mps 748 mmHg 88%
    20:00 +2°C° 0 mm 3 mps 748 mmHg 89%
    21:00 +2°C° 0 mm 3 mps 748 mmHg 89%
    22:00 +2°C° 0 mm 3 mps 748 mmHg 88%
    23:00 +2°C° 0 mm 3 mps 748 mmHg 88%

    Tomorrow, 19 January, Saturday

    Time Temperature Precipitation Wind Pressure Humidity
    00:00 +2°C° 0 mm 3 mps 748 mmHg 88%
    01:00 +2°C° 0 mm 3 mps 748 mmHg 87%
    02:00 +2°C° 0 mm 3 mps 748 mmHg 86%
    03:00 +2°C° 0 mm 3 mps 747 mmHg 86%
    04:00 +1°C° 0 mm 4 mps 747 mmHg 86%
    05:00 +3°C° 0 mm 4 mps 747 mmHg 85%
    06:00 +3°C° 0 mm 4 mps 747 mmHg 87%
    07:00 +3°C° 0 mm 4 mps 747 mmHg 89%
    08:00 +4°C° 0 mm 4 mps 747 mmHg 92%
    09:00 +5°C° 0 mm 4 mps 748 mmHg 89%
    10:00 +6°C° 0 mm 5 mps 748 mmHg 86%
    11:00 +7°C° 0 mm 5 mps 748 mmHg 84%
    12:00 +6°C° 0 mm 5 mps 749 mmHg 81%
    13:00 +6°C° 0 mm 5 mps 749 mmHg 79%
    14:00 +6°C° 0 mm 4 mps 749 mmHg 77%
    15:00 +4°C° 0 mm 4 mps 749 mmHg 79%
    16:00 +3°C° 0 mm 4 mps 750 mmHg 82%
    17:00 +1°C° 0 mm 4 mps 750 mmHg 85%
    18:00 0°C° 0 mm 4 mps 751 mmHg 85%
    19:00 +1°C° 0 mm 3 mps 751 mmHg 85%
    20:00 +1°C° 0 mm 3 mps 751 mmHg 85%
    21:00 0°C° 0 mm 3 mps 752 mmHg 87%
    22:00 -1°C° 0 mm 3 mps 752 mmHg 88%
    23:00 -1°C° 0 mm 3 mps 752 mmHg 90%

    Day after tomorrow, 20 January, Sunday

    Time Temperature Precipitation Wind Pressure Humidity
    00:00 -2°C° 0 mm 3 mps 752 mmHg 89%
    01:00 -2°C° 0 mm 3 mps 753 mmHg 88%
    02:00 -2°C° 0 mm 2 mps 753 mmHg 88%
    03:00 -3°C° 0 mm 2 mps 753 mmHg 87%
    04:00 -3°C° 0 mm 2 mps 753 mmHg 86%
    05:00 -3°C° 0 mm 2 mps 753 mmHg 86%
    06:00 -3°C° 0 mm 2 mps 753 mmHg 85%
    07:00 -3°C° 0 mm 2 mps 753 mmHg 83%
    08:00 -2°C° 0 mm 2 mps 753 mmHg 82%
    09:00 -1°C° 0 mm 2 mps 753 mmHg 77%
    10:00 0°C° 0 mm 3 mps 753 mmHg 73%
    11:00 +1°C° 0 mm 3 mps 753 mmHg 68%
    12:00 +2°C° 0 mm 3 mps 752 mmHg 67%
    13:00 +2°C° 0 mm 3 mps 752 mmHg 67%
    14:00 +4°C° 0 mm 2 mps 751 mmHg 66%
    15:00 +3°C° 0 mm 2 mps 751 mmHg 71%
    16:00 +2°C° 0 mm 2 mps 751 mmHg 77%
    17:00 +1°C° 0 mm 2 mps 751 mmHg 82%
    18:00 +1°C° 0 mm 2 mps 751 mmHg 83%
    19:00 -1°C° 0 mm 2 mps 750 mmHg 83%
    20:00 -1°C° 0 mm 2 mps 750 mmHg 84%
    21:00 +1°C° 0 mm 2 mps 750 mmHg 83%
    22:00 +1°C° 0 mm 2 mps 750 mmHg 83%
    23:00 +1°C° 0 mm 2 mps 750 mmHg 83%

    21 January, Monday

    Time Temperature Precipitation Wind Pressure Humidity
    00:00 +1°C° 0.1 mm 2 mps 749 mmHg 85%
    01:00 +2°C° 0.1 mm 2 mps 749 mmHg 86%
    02:00 +2°C° 0.1 mm 2 mps 748 mmHg 87%
    03:00 +2°C° 0.4 mm 2 mps 748 mmHg 88%
    04:00 +2°C° 0.4 mm 3 mps 747 mmHg 90%
    05:00 +2°C° 0.4 mm 3 mps 747 mmHg 91%
    06:00 +3°C° 0.3 mm 3 mps 747 mmHg 89%
    07:00 +3°C° 0.3 mm 3 mps 746 mmHg 88%
    08:00 +3°C° 0.3 mm 4 mps 746 mmHg 87%
    09:00 +4°C° 0.1 mm 4 mps 746 mmHg 83%
    10:00 +6°C° 0.1 mm 4 mps 746 mmHg 79%
    11:00 +7°C° 0.1 mm 5 mps 745 mmHg 75%
    12:00 +6°C° 0.3 mm 5 mps 745 mmHg 79%
    13:00 +6°C° 0.3 mm 5 mps 745 mmHg 83%
    14:00 +6°C° 0.3 mm 4 mps 744 mmHg 88%
    15:00 +5°C° 0.3 mm 5 mps 745 mmHg 89%
    16:00 +3°C° 0.3 mm 5 mps 745 mmHg 90%
    17:00 +3°C° 0.3 mm 5 mps 745 mmHg 92%
    18:00 +1°C° 0.1 mm 5 mps 746 mmHg 91%
    19:00 0°C° 0.1 mm 5 mps 747 mmHg 89%
    20:00 -1°C° 0.1 mm 5 mps 748 mmHg 88%
    21:00 -2°C° 0 mm 5 mps 748 mmHg 87%
    22:00 -4°C° 0 mm 5 mps 749 mmHg 86%
    23:00 -5°C° 0 mm 5 mps 750 mmHg 85%

    22 January, Tuesday

    Time Temperature Precipitation Wind Pressure Humidity
    00:00 -5°C° 0 mm 5 mps 750 mmHg 83%
    01:00 -6°C° 0 mm 5 mps 751 mmHg 82%
    02:00 -7°C° 0 mm 4 mps 751 mmHg 80%
    03:00 -7°C° 0 mm 4 mps 752 mmHg 78%
    04:00 -7°C° 0 mm 4 mps 752 mmHg 76%
    05:00 -7°C° 0 mm 3 mps 752 mmHg 74%
    06:00 -7°C° 0 mm 3 mps 753 mmHg 73%
    07:00 -6°C° 0 mm 3 mps 753 mmHg 71%
    08:00 -6°C° 0 mm 3 mps 753 mmHg 70%
    09:00 -6°C° 0 mm 3 mps 753 mmHg 65%
    10:00 -5°C° 0 mm 3 mps 754 mmHg 60%
    11:00 -4°C° 0 mm 3 mps 754 mmHg 55%
    12:00 -4°C° 0 mm 3 mps 753 mmHg 53%
    13:00 -2°C° 0 mm 3 mps 753 mmHg 51%
    14:00 -2°C° 0 mm 3 mps 753 mmHg 49%
    15:00 -4°C° 0 mm 3 mps 752 mmHg 54%
    16:00 -5°C° 0 mm 3 mps 752 mmHg 58%
    17:00 -5°C° 0 mm 3 mps 752 mmHg 63%
    18:00 -5°C° 0 mm 3 mps 752 mmHg 64%
    19:00 -5°C° 0 mm 3 mps 752 mmHg 65%
    20:00 -6°C° 0 mm 3 mps 752 mmHg 65%
    21:00 -6°C° 0 mm 3 mps 751 mmHg 66%
    22:00 -6°C° 0 mm 3 mps 751 mmHg 66%
    23:00 -6°C° 0 mm 3 mps 751 mmHg 67%

    23 January, Wednesday

    Time Temperature Precipitation Wind Pressure Humidity
    00:00 -6°C° 0 mm 3 mps 750 mmHg 67%
    01:00 -5°C° 0 mm 2 mps 750 mmHg 67%
    02:00 -5°C° 0 mm 2 mps 750 mmHg 68%
    03:00 -5°C° 0 mm 2 mps 749 mmHg 68%
    04:00 -6°C° 0 mm 3 mps 749 mmHg 67%
    05:00 -6°C° 0 mm 3 mps 749 mmHg 67%
    06:00 -6°C° 0 mm 3 mps 748 mmHg 67%
    07:00 -7°C° 0 mm 4 mps 748 mmHg 66%
    08:00 -7°C° 0 mm 4 mps 748 mmHg 66%
    09:00 -4°C° 0 mm 4 mps 748 mmHg 63%
    10:00 -4°C° 0 mm 5 mps 748 mmHg 59%
    11:00 -2°C° 0 mm 5 mps 747 mmHg 56%
    12:00 -1°C° 0 mm 5 mps 747 mmHg 60%
    13:00 0°C° 0 mm 5 mps 746 mmHg 64%
    14:00 0°C° 0 mm 5 mps 746 mmHg 67%
    15:00 -1°C° 0 mm 6 mps 745 mmHg 74%
    16:00 -2°C° 0 mm 6 mps 745 mmHg 80%
    17:00 -2°C° 0 mm 6 mps 744 mmHg 86%
    18:00 -2°C° 0 mm 6 mps 744 mmHg 86%
    19:00 -1°C° 0 mm 7 mps 744 mmHg 86%
    20:00 -1°C° 0 mm 7 mps 744 mmHg 86%
    21:00 0°C° 0 mm 7 mps 743 mmHg 86%
    22:00 0°C° 0 mm 7 mps 743 mmHg 87%
    23:00 0°C° 0 mm 7 mps 743 mmHg 87%
    Show more